Location: Cointrin
(46.2167°N, 6.1167°E)
Time: 06:50:27
(UTC+00:00)

Lacrosse 5 rocket - Pass Details

Date: 08 February 2023
Orbit: 454 x 613 km, 57.0° (Epoch: 25 March)

Event Time Altitude Azimuth Distance (km) Brightness Sun altitude
Rises 17:06:22 0° 309° (NW) 2,477 5.2 -3.4°
Reaches altitude 10° 17:08:29 10° 309° (NW) 1,608 4.2 -3.8°
Maximum altitude 17:12:04 87° 222° (SW) 473 1.1 -4.4°
Drops below altitude 10° 17:15:46 10° 132° (SE) 1,651 3.5 -5.0°
Enters shadow 17:21:00 -9° 132° (SE) 3,801 5.3 -5.9°
Exits shadow 17:45:35 -59° 132° (SE) 11,676 7.9 -10.0°
Sets 18:55:09 0° 183° (S) 2,569 4.8 -22.0°
